Home   Weather   Yverdon-les-Bains   Past weeks

Flag for Switzerland Past Weather in Yverdon-les-Bains, Vaud, Switzerland — Yesterday and Last 2 Weeks

Now
30 °F

Chilly.


Feels Like: 30 °F
Forecast: 22 / 44 °F
Wind: 2 mph from Southwest

Location: Payerne

Current Time: Dec 3, 2016 at 3:41:20 am

Latest Report: Dec 3, 2016 at 3:00 am


Visibility: N/A

Pressure: 30.15 "Hg

Humidity: 94%

Dew Point: 28 °F

Location of Yverdon-les-BainsLocation

Past Weather in Yverdon-les-Bains — Graph

°F

Yverdon-les-Bains Temperature Yesterday

Maximum temperature yesterday: 39 °F (at 3:00 pm)
Minimum temperature yesterday: 24 °F (at 5:00 am)
Average temperature yesterday: 31 °F

High & Low Weather Summary for the Past Weeks

 TemperatureHumidityPressure
High53 °F (Nov 20, 3:00 pm)100% (Nov 23, 11:00 pm)30.67 "Hg (Nov 23, 11:00 pm)
Low24 °F (Dec 2, 5:00 am)57% (Nov 28, 6:00 pm)29.65 "Hg (Nov 21, 2:00 pm)
Average39 °F89%30.06 "Hg
* Reported Nov 18 2:00 am — Dec 3 2:00 am, Yverdon-les-Bains, Weather by CustomWeather, © 2016

Note: Actual official high and low records may vary slightly from our data, if they occured in-between our weather recording intervals... More about our weather records

Advertising

Yverdon-les-Bains Weather History for the Previous 24 Hours

Scroll right to see more
 ConditionsComfort  
Time TempWeatherWind HumidityBarometerVisibility
2:00 am
Sat, Dec 3
28 °FChilly.No wind96%30.16 "HgN/A
1:00 am30 °FFog.2 mph92%30.15 "Hg9 mi
12:00 am30 °FChilly.2 mph92%30.16 "HgN/A
11:00 pm
Fri, Dec 2
32 °FChilly.5 mph88%30.15 "HgN/A
10:00 pm34 °FFog.6 mph83%30.15 "Hg9 mi
9:00 pm35 °FChilly.5 mph81%30.15 "HgN/A
8:00 pm33 °FChilly.2 mph85%30.16 "HgN/A
7:00 pm36 °FFog.8 mph79%30.15 "Hg5 mi
6:00 pm36 °FChilly.6 mph79%30.15 "HgN/A
5:00 pm37 °FChilly.2 mph81%30.14 "HgN/A
4:00 pm39 °FChilly.1 mph79%30.14 "HgN/A
3:00 pm39 °FChilly.3 mph75%30.15 "HgN/A
2:00 pm37 °FChilly.2 mph76%30.17 "HgN/A
1:00 pm34 °FFog.1 mph88%30.22 "Hg6 mi
12:00 pm31 °FChilly.2 mph90%30.25 "HgN/A
11:00 am29 °FChilly.2 mph93%30.29 "HgN/A
10:00 am27 °FFog.2 mph99%30.31 "Hg0 mi
9:00 am26 °FChilly.1 mph100%30.31 "HgN/A
8:00 am27 °FChilly.1 mph100%30.29 "HgN/A
7:00 am29 °FFog.2 mph100%30.29 "Hg0 mi
6:00 am27 °FChilly.1 mph96%30.28 "HgN/A
5:00 am24 °FCold.No wind97%30.29 "HgN/A
4:00 am26 °FChilly.2 mph100%30.30 "HgN/A
3:00 am26 °FChilly.1 mph98%30.32 "HgN/A
Weather by CustomWeather, © 2016

See weather overviewHow to use our weather pages